Theta_e
329 321 316 311 301 293 290 294 298 300 301 303 307 308 308 312 310 303 330 335 337 336 338 342 345 348 348 347 345 345 345 343 342 341 340 338 338 336 335 335 335 334 333 334 334 334 334 334 334
323 318 313 305 296 288 290 293 298 300 305 312 310 309 309 309 324 329 331 336 337 336 338 339 343 346 347 346 346 346 345 342 342 340 339 337 336 334 335 336 337 337 335 333 332 333 333 333 333
314 317 308 301 292 289 289 296 299 303 306 304 306 311 310 312 324 329 334 336 336 335 337 340 343 346 346 346 345 345 345 342 340 339 338 338 336 335 334 333 339 339 336 332 332 332 332 332 332
309 312 307 296 291 295 293 300 301 302 301 308 308 308 314 323 329 332 336 336 334 333 335 340 344 347 347 347 346 345 344 343 340 339 338 337 336 335 335 337 333 336 336 333 331 330 330 330 331
310 306 300 294 295 296 295 301 302 300 299 301 306 306 311 325 333 336 334 334 332 331 333 338 343 345 346 346 346 345 344 343 342 341 339 338 338 336 336 337 334 333 333 333 331 330 330 330 331
303 304 296 293 295 296 298 301 302 299 300 306 308 309 312 325 332 333 334 332 332 331 332 336 336 340 343 345 345 344 344 343 343 341 340 340 337 336 335 333 334 334 332 332 332 331 331 330 330
302 300 296 295 295 296 299 301 299 300 301 301 312 307 310 322 330 332 331 331 332 331 332 332 335 336 335 338 340 341 341 341 342 341 340 339 338 337 336 335 336 333 332 332 332 333 331 330 329
305 302 297 295 295 296 300 301 302 300 300 308 312 305 308 321 330 329 330 330 329 330 330 329 330 332 332 333 332 333 335 338 339 338 335 333 332 333 333 331 333 336 336 335 334 334 333 332 332
306 297 295 297 297 298 301 302 304 307 307 312 313 312 313 327 329 327 326 326 327 329 329 329 329 329 330 330 330 328 329 333 333 332 329 326 327 328 327 327 329 334 335 335 335 334 334 333 331
298 293 297 302 303 301 301 302 306 306 307 309 313 318 322 328 327 325 324 324 325 325 326 329 328 328 328 332 329 327 328 329 331 330 328 327 325 324 325 322 324 328 330 332 335 335 332 328 323
297 294 299 303 305 306 303 302 304 305 303 308 310 316 322 325 325 324 324 326 326 327 328 329 329 329 328 328 326 325 325 325 325 326 325 326 325 322 322 321 321 321 319 322 325 324 323 322 321
295 297 299 304 305 305 302 304 302 304 305 309 314 321 323 323 324 324 325 325 326 326 329 330 330 329 328 328 325 324 324 323 322 322 323 321 321 320 319 319 319 319 320 319 319 319 319 319 320
294 296 300 303 303 303 305 302 301 302 307 312 320 321 321 322 323 324 324 326 326 327 328 329 329 329 329 327 326 324 324 323 323 322 323 322 320 319 319 319 318 318 319 319 318 318 318 318 319
299 299 298 301 300 302 302 301 303 303 310 313 318 319 320 321 322 322 323 324 325 328 327 328 328 328 328 328 325 325 324 324 323 323 324 323 323 322 320 320 320 319 319 319 319 319 318 318 318
301 296 296 297 298 298 299 293 300 302 306 311 314 316 318 320 322 322 324 324 326 327 328 328 328 329 328 327 326 327 326 326 325 325 324 323 323 322 322 322 321 321 320 320 319 319 319 318 318
295 294 289 294 298 298 293 287 292 298 300 306 309 310 314 317 320 321 321 323 323 326 327 328 331 329 329 329 327 327 327 327 327 326 326 325 325 324 322 322 322 322 321 320 318 318 317 316 316
291 286 288 292 297 297 293 290 293 298 297 300 301 304 306 308 312 317 319 321 322 324 325 327 328 328 329 329 330 328 327 328 328 326 326 326 326 325 325 323 324 322 321 320 320 319 317 317 320
286 286 287 288 293 296 292 292 294 297 297 296 297 297 297 299 301 306 311 316 319 320 321 323 325 328 328 327 326 325 325 325 325 326 327 326 326 325 325 324 323 322 321 322 323 322 323 323 322
291 287 286 287 294 292 292 293 295 297 295 295 295 297 298 299 300 302 302 301 303 309 317 319 321 323 325 322 321 321 324 323 324 324 325 325 327 326 324 324 323 325 326 326 325 325 323 323 322
290 286 285 290 293 290 287 289 292 293 293 294 294 295 297 298 298 299 299 297 300 300 301 304 313 320 324 325 322 323 322 321 322 324 324 324 324 325 325 324 324 326 326 326 326 324 321 321 322
289 287 286 287 290 289 285 283 286 288 291 293 294 294 295 297 298 297 298 297 297 299 300 303 304 305 311 322 320 319 320 318 319 321 322 324 325 324 324 324 324 324 325 326 325 324 322 320 320
286 292 290 289 285 281 284 276 282 284 287 288 289 291 292 293 294 295 296 295 297 299 301 302 304 305 306 308 316 317 320 319 317 320 321 322 324 324 324 323 322 325 323 323 324 324 323 321 319
290 293 291 288 284 282 280 278 281 283 284 287 287 290 289 292 293 295 296 298 299 300 299 301 303 306 308 306 307 310 313 315 316 316 318 318 319 320 321 321 321 323 320 322 324 322 321 321 319
294 291 290 288 282 274 281 280 277 281 286 285 289 290 292 293 294 295 297 299 299 298 297 298 300 300 302 304 305 305 308 310 312 313 314 314 312 309 310 315 317 317 316 319 320 320 321 320 320
291 287 278 277 275 274 278 277 279 284 285 287 291 291 291 293 294 295 297 298 297 297 296 297 298 298 299 300 300 302 306 308 310 312 312 310 306 304 303 305 305 304 305 307 307 306 306 306 307
288 286 278 272 270 274 280 276 281 286 290 290 293 293 292 291 294 295 297 297 297 296 296 296 296 296 297 297 298 299 301 303 304 305 306 306 303 301 301 301 302 302 302 302 303 303 303 302 303
288 283 286 279 272 274 277 280 285 288 288 289 291 292 293 293 295 295 296 296 296 295 294 294 295 295 295 296 296 297 298 299 299 299 300 299 299 299 299 299 299 299 299 299 300 299 298 298 298
288 291 282 280 269 269 274 276 278 283 287 288 289 291 292 294 295 296 296 295 294 294 293 293 294 294 294 294 294 295 295 296 296 297 296 296 296 296 296 296 297 297 297 297 298 296 296 295 296
286 285 285 284 279 273 271 275 281 283 287 288 290 291 292 294 295 296 296 295 294 293 292 293 293 293 293 293 294 293 293 294 294 294 294 294 295 295 295 296 296 295 295 295 294 294 294 294 294
289 286 286 278 276 278 278 277 286 287 286 289 289 291 290 291 293 294 295 295 294 293 292 292 292 292 293 293 293 293 293 292 292 292 293 293 293 294 294 294 294 294 293 292 292 292 292 291 292
Wind_Speed
8 4 3 5 5 5 1 2 2 4 2 2 4 4 6 3 3 4 0 5 13 12 8 8 12 15 14 14 14 13 13 13 12 12 11 11 11 11 11 11 11 10 9 9 8 8 8 8 7
5 2 5 3 5 3 5 4 3 1 5 8 6 4 4 2 2 6 8 9 14 12 8 7 10 14 15 15 14 13 12 12 11 11 11 10 10 9 9 8 11 10 9 8 7 6 6 6 7
3 2 4 5 4 5 5 4 5 3 7 2 4 4 3 5 2 10 6 12 10 9 8 8 10 14 15 15 14 12 11 11 11 11 10 11 10 8 8 5 9 8 9 7 6 6 5 5 6
3 4 5 4 4 3 5 7 4 5 2 4 4 6 2 3 8 7 13 13 11 8 7 10 12 15 15 14 13 12 11 11 11 11 10 10 9 10 7 6 6 6 8 6 5 4 3 4 6
4 3 4 2 3 2 3 5 6 4 3 2 2 3 3 3 5 14 13 11 11 8 7 8 11 14 15 14 13 12 12 12 11 10 10 8 8 7 6 5 7 6 5 5 4 3 2 3 5
4 3 4 2 3 2 0 3 6 4 2 3 6 5 4 1 10 10 12 9 8 9 7 6 8 10 11 12 12 12 12 13 13 11 10 11 10 8 5 4 4 7 6 5 4 3 2 1 3
6 4 3 3 3 2 5 6 4 6 5 4 9 6 1 3 5 9 8 8 8 7 7 5 6 7 9 9 9 9 7 12 11 10 10 10 10 8 7 6 5 6 6 5 6 6 4 3 4
5 4 2 2 5 5 4 6 5 5 4 3 4 5 5 6 9 8 8 7 6 6 6 6 6 5 5 5 7 7 6 8 9 9 9 8 8 8 7 7 7 7 7 6 6 7 8 7 6
3 5 2 3 6 3 4 4 2 1 6 2 1 6 3 12 11 9 6 4 5 5 6 6 6 6 6 6 6 7 6 7 8 7 8 6 3 5 6 6 7 9 8 8 7 8 8 8 8
4 4 8 2 1 3 2 2 7 4 3 1 1 2 7 14 13 13 11 10 7 8 6 7 6 6 5 5 5 5 4 3 4 4 4 3 4 4 5 6 7 8 8 9 9 9 9 6 3
3 5 5 3 1 3 5 3 2 8 2 6 7 6 11 11 11 11 10 10 12 9 6 9 8 7 7 5 4 3 3 3 3 5 5 4 3 3 3 3 3 3 5 4 5 5 3 4 4
3 3 3 2 1 1 4 2 1 4 5 3 8 12 13 13 14 13 12 9 8 8 11 9 8 7 7 4 4 4 4 3 3 4 6 4 3 4 4 3 4 4 3 5 4 3 5 6 6
3 2 2 0 3 3 2 3 2 4 4 2 10 9 11 11 11 7 7 6 7 10 8 8 8 8 7 6 4 4 5 4 5 5 5 5 4 4 4 4 4 4 3 4 4 4 4 5 6
4 1 1 1 1 2 3 1 2 1 3 5 10 10 8 9 9 5 7 8 10 9 9 8 9 9 7 7 7 6 4 5 5 5 6 7 6 5 5 4 5 4 4 4 4 5 5 5 4
2 3 2 3 2 1 3 2 5 2 2 5 6 6 7 9 7 13 11 10 10 9 9 10 10 9 9 9 8 5 5 5 5 6 6 7 7 6 6 5 5 5 4 6 4 5 4 4 3
3 5 2 1 4 1 4 7 4 2 3 7 7 7 7 9 11 9 8 9 8 9 10 9 10 10 10 9 7 5 6 6 6 5 5 7 8 7 5 5 5 4 4 4 3 4 4 4 4
5 4 4 4 2 2 3 6 4 4 2 6 6 7 7 7 8 9 9 8 8 10 10 10 10 11 12 11 7 7 8 7 6 5 5 7 7 7 7 5 6 5 4 4 4 4 4 4 5
7 5 4 5 1 4 3 8 4 3 1 3 6 7 7 8 10 7 7 7 7 7 6 6 6 8 7 4 4 3 3 4 4 6 6 7 5 6 6 5 5 4 4 4 4 6 4 5 5
6 4 4 2 1 2 4 7 7 7 6 8 8 8 9 9 5 4 0 1 3 5 7 7 7 8 5 3 3 3 6 5 6 6 8 7 7 7 6 5 5 5 7 8 7 4 5 4 3
4 4 3 2 2 1 4 9 8 6 7 8 8 9 10 4 4 5 4 4 3 2 2 2 6 5 6 5 2 2 3 3 2 3 5 7 7 6 6 6 5 6 5 6 6 6 3 3 3
2 4 4 3 1 2 3 8 7 4 4 6 9 8 7 9 8 6 6 5 2 2 4 3 2 4 6 6 3 2 2 1 1 3 3 7 7 6 7 6 5 5 5 6 5 5 5 3 2
4 6 4 6 4 3 2 6 6 3 8 7 9 7 8 8 4 4 5 2 3 3 4 4 4 4 2 4 4 6 5 6 4 4 3 3 5 6 6 5 5 4 3 5 4 4 3 3 4
3 4 6 3 4 2 2 2 10 3 7 11 6 6 6 6 5 5 5 4 3 3 4 5 4 3 4 2 3 4 4 3 1 2 3 2 1 1 2 4 3 3 3 4 3 3 3 3 3
8 8 8 5 3 2 7 6 6 4 7 2 2 3 5 5 5 5 4 4 3 3 4 4 4 4 6 5 3 2 5 4 3 3 3 3 2 3 4 4 2 2 3 3 2 1 1 2 3
3 6 4 2 2 6 2 2 8 9 5 3 5 4 4 5 5 4 4 3 2 3 4 4 5 5 6 6 6 5 4 4 6 5 4 5 3 2 3 3 4 3 3 4 3 4 4 3 2
4 4 7 8 5 4 3 7 8 4 6 6 4 5 2 4 2 3 4 2 2 1 2 3 4 4 5 5 5 5 4 1 1 1 2 3 3 3 3 4 4 4 4 4 4 3 3 2 2
5 4 5 6 2 3 5 7 10 5 2 3 6 4 4 4 4 4 4 4 1 1 2 3 3 2 3 3 4 5 5 5 4 4 4 3 4 3 4 4 4 4 5 5 5 3 3 3 3
4 8 4 2 3 4 4 4 7 4 4 2 4 6 4 4 5 4 4 3 2 2 1 1 1 2 2 2 3 3 4 4 4 4 4 4 3 3 4 4 4 5 5 5 5 4 4 4 3
3 3 2 5 4 5 1 7 7 6 7 8 7 6 6 7 6 4 3 2 3 2 2 3 2 3 3 2 1 2 3 3 4 4 4 3 3 4 4 4 5 5 5 5 5 5 5 5 4
3 3 5 5 5 3 2 7 3 7 8 9 8 7 4 3 4 3 3 2 3 4 4 5 4 4 4 3 1 1 2 3 3 3 3 3 4 3 3 4 5 5 5 5 5 4 4 4 4
Wind_Direction
326 339 107 47 59 65 259 270 309 128 92 337 105 140 158 79 151 204 46 139 137 147 149 151 157 144 140 134 133 128 126 131 130 126 123 122 123 122 120 122 116 109 103 99 96 93 87 81 76
316 119 46 85 89 82 264 272 205 202 145 123 89 94 59 108 98 122 126 157 146 144 144 146 157 148 146 142 142 142 141 139 137 137 136 137 129 131 123 144 138 122 109 106 103 96 81 71 62
315 57 86 95 110 174 197 214 194 136 164 148 96 58 140 159 69 150 140 141 139 138 142 146 154 157 149 152 153 152 150 147 148 151 152 151 141 141 131 130 102 131 119 109 106 98 74 48 42
34 16 38 89 209 237 198 185 206 143 130 80 123 67 1 245 151 167 144 140 140 142 143 155 157 163 159 158 159 156 155 156 157 161 164 162 156 152 149 132 119 100 110 117 112 102 77 30 21
32 58 67 76 268 267 245 179 169 148 129 92 111 162 20 27 108 134 141 148 151 148 148 157 159 161 162 161 165 164 165 166 167 168 166 172 165 162 157 155 147 142 142 134 130 123 86 19 4
41 90 68 181 267 331 264 197 158 140 150 155 83 110 167 93 133 149 146 150 149 148 147 155 157 154 160 163 167 178 184 177 173 177 172 172 178 185 173 144 144 170 168 165 169 173 190 290 327
111 84 198 189 223 186 202 151 182 166 149 203 151 127 269 174 164 146 143 137 146 147 151 160 164 167 159 164 174 188 210 170 177 182 179 178 180 186 195 197 179 191 202 210 202 205 216 244 284
104 96 157 236 197 221 185 159 155 142 194 81 138 180 207 194 154 126 129 135 141 148 152 157 160 165 174 177 181 186 193 184 184 188 188 186 189 195 204 214 224 223 219 229 209 208 223 238 255
111 72 188 208 159 256 158 144 171 89 117 59 130 153 220 138 137 134 127 127 149 166 169 166 173 178 180 185 196 194 199 193 189 191 196 193 197 215 218 227 235 242 244 244 244 248 244 243 259
96 125 208 193 210 235 235 181 158 133 117 5 299 33 123 139 158 163 169 176 180 183 186 181 180 182 176 187 189 199 200 198 192 189 196 200 209 223 219 228 242 250 253 254 257 258 266 279 274
153 181 199 236 248 220 188 157 300 123 244 209 195 152 146 154 169 177 185 187 189 189 184 192 186 184 179 194 179 189 191 191 200 203 201 213 213 233 244 255 264 254 264 263 274 285 287 278 270
154 220 211 169 294 140 126 144 225 198 213 225 182 158 153 169 186 189 191 188 183 186 195 190 188 184 192 188 183 186 187 191 202 211 205 200 217 225 237 232 243 239 235 249 246 253 266 271 265
168 219 130 281 53 87 119 77 189 254 330 25 131 148 175 180 193 199 190 190 184 198 197 197 182 187 190 189 189 182 197 195 208 208 214 200 212 224 226 237 238 240 230 228 240 240 247 255 260
180 140 228 245 341 38 120 148 102 257 58 108 153 174 179 191 192 176 193 198 198 203 200 193 199 192 181 196 189 197 188 205 202 212 219 211 213 218 217 230 232 238 222 228 229 234 242 245 245
111 132 21 218 208 228 146 285 219 101 109 159 191 191 195 213 188 215 209 211 200 210 205 199 199 196 190 199 198 197 198 200 208 215 215 212 209 219 218 225 232 229 221 230 238 250 251 263 256
100 61 114 296 164 252 106 256 255 355 175 203 213 214 220 229 225 230 221 217 203 204 203 199 206 203 204 204 196 194 199 206 214 211 211 216 215 212 215 229 237 225 226 222 231 241 262 261 262
9 176 188 304 180 133 152 244 249 66 138 224 227 231 233 250 245 241 231 225 218 211 209 208 201 206 207 211 202 195 202 211 216 203 210 224 221 214 214 223 240 219 222 221 228 243 216 254 261
184 185 223 197 260 147 168 254 253 272 67 280 279 269 254 249 247 248 245 232 224 228 228 224 208 214 201 187 183 200 200 212 205 215 214 212 219 213 211 221 229 216 222 233 227 235 233 243 249
143 149 170 215 352 147 211 261 245 279 307 273 257 261 257 252 253 250 32 345 238 223 210 209 197 210 173 153 170 195 220 211 221 218 219 213 222 213 210 219 214 218 232 230 227 221 231 253 219
134 141 180 49 7 116 24 275 266 251 252 243 243 242 248 240 248 269 298 3 27 344 0 232 233 208 200 202 205 176 167 215 199 194 214 218 217 211 212 217 217 225 223 234 213 199 208 238 188
168 154 168 145 89 56 356 298 290 282 252 279 256 246 241 235 245 255 275 270 315 21 1 358 327 244 225 199 150 115 90 43 155 204 222 222 213 211 212 214 209 223 222 230 208 192 193 231 229
190 186 140 127 100 230 28 271 295 315 289 262 270 260 253 245 233 226 233 101 43 351 338 335 329 339 322 202 191 188 207 218 218 209 216 222 210 225 217 207 207 234 235 232 200 180 192 192 256
195 121 130 97 90 73 345 46 270 345 294 272 307 301 249 250 224 166 119 118 78 27 0 343 324 0 348 339 219 216 223 226 201 210 216 227 261 266 242 206 202 229 255 237 197 203 206 212 238
150 92 54 55 54 323 201 171 266 223 216 294 305 3 108 113 111 107 93 83 66 34 27 19 28 16 4 0 337 268 240 233 209 203 189 167 90 57 54 86 106 82 79 71 63 50 308 292 258
94 119 47 337 307 223 191 169 248 265 256 252 227 220 179 142 137 136 113 76 45 40 17 8 19 9 1 11 11 352 272 238 228 214 182 155 141 104 70 79 77 75 64 82 70 62 56 36 19
164 152 151 199 202 214 117 234 249 230 286 232 196 180 172 146 147 153 178 169 221 27 30 16 24 9 7 8 4 3 11 10 8 161 142 136 130 128 104 93 89 90 86 82 81 83 80 59 52
184 173 164 109 6 50 215 286 297 259 306 113 141 151 175 162 171 192 212 219 240 312 335 354 351 359 10 8 6 11 14 30 55 57 73 89 99 108 108 111 111 95 84 80 90 88 69 61 40
157 153 96 19 150 245 261 275 246 252 233 187 161 178 162 160 182 216 228 241 253 244 250 325 314 300 323 357 21 37 29 38 49 56 74 88 95 88 98 88 90 80 68 65 73 68 43 60 30
147 180 156 129 160 179 204 256 216 221 204 199 208 196 185 185 199 212 238 253 250 257 253 253 271 288 300 328 15 31 42 51 58 72 65 74 77 86 89 100 95 88 76 61 68 67 45 47 30
209 231 158 141 215 233 159 271 203 254 213 178 188 197 196 194 212 236 250 272 279 279 275 256 237 233 242 238 188 145 88 69 79 80 75 72 85 72 94 86 86 79 69 56 61 62 55 53 32